Regional Weather Roundup
Issued by NWS

Home | Current Version | Previous Version | Text Only | Print | Product List | Glossary Off
Versions: 1 2 3 4 5 6 7 8 9 10 11 12 13 14 15 16 17 18 19 20 21 22 23 24 25 26 27 28 29 30 31 32 33 34 35 36 37 38 39 40 41 42 43 44 45 46 47 48 49 50

966
ASUS43 KOAX 230610
RWRNE

WEATHER ROUNDUP FOR NEBRASKA
NATIONAL WEATHER SERVICE OMAHA NE
100 AM CDT SAT JUL 23 2016

NOTES: SATELLITE DATA IS BEING USED TO AUGMENT CLOUD COVER ABOVE
       12000 FEET.
       "FAIR" INDICATES FEW OR NO CLOUDS BELOW 12,000 FEET WITH NO
       SIGNIFICANT WEATHER AND/OR OBSTRUCTIONS TO VISIBILITY.

  * THESE STATIONS DO NOT REPORT WEATHER SUCH AS RAIN...SNOW OR FOG.

NEZ001>004-019>022-054>056-230700-
NEBRASKA PANHANDLE

CITY           SKY/WX    TMP DP  RH WIND       PRES   REMARKS
SCOTTSBLUFF    CLOUDY    67  60  78 SE8       30.01F
6HR MIN TEMP:  67; 6HR MAX TEMP:  82;

ALLIANCE       CLOUDY    66  60  81 S12       30.00F
6HR MIN TEMP:  66; 6HR MAX TEMP:  70; 6HR PCP:  0.03;

CHADRON        PTCLDY    74  58  57 NW12      29.96R
6HR MIN TEMP:  72; 6HR MAX TEMP:  81; 6HR PCP:  0.08;

KIMBALL        CLOUDY    70  62  74 SE14G20   30.10S
SIDNEY         CLOUDY    69  61  75 SE12      30.06F
6HR MIN TEMP:  67; 6HR MAX TEMP:  85;

$$

NEZ057>060-069>072-079>082-230700-
SOUTHWEST NEBRASKA

CITY           SKY/WX    TMP DP  RH WIND       PRES   REMARKS
NORTH PLATTE   TSTM      69  66  90 NW20G25   30.08R FOG
6HR MIN TEMP:  69; 6HR MAX TEMP:  89; 6HR PCP:  0.07;

IMPERIAL       TSTM      71  65  81 E17G25    30.02F
6HR MIN TEMP:  69; 6HR MAX TEMP:  87; 6HR PCP:  0.26;

LEXINGTON      CLOUDY    80  70  70 NW21G26   30.02R
MCCOOK         TSTM      70  64  81 N26G39    30.02R
6HR MIN TEMP:  72; 6HR MAX TEMP:  91;

OGALLALA       CLOUDY    71  63  75 E17       30.01F
$$

NEZ005>010-023>029-035>040-094-230700-
NORTH CENTRAL NEBRASKA

CITY           SKY/WX    TMP DP  RH WIND       PRES   REMARKS
VALENTINE      CLOUDY    82  75  79 E10       29.91S
6HR MIN TEMP:  82; 6HR MAX TEMP:  93;

AINSWORTH      LGT RAIN  81  78  90 SE9       29.94R
BROKEN BOW     TSTM      73  68  84 W15       30.02R
6HR MIN TEMP:  72; 6HR MAX TEMP:  89; 6HR PCP:  0.01;

O`NEILL        CLOUDY    83  76  81 SE7       29.91F HX  91
ORD            CLOUDY    79  76  90 SE3       29.91S
6HR MIN TEMP:  78; 6HR MAX TEMP:  93;

THEDFORD       LGT RAIN  73  64  71 S26G32    29.91F
$$

NEZ041-046>049-061>064-073>077-083>087-230700-
SOUTH CENTRAL NEBRASKA

CITY           SKY/WX    TMP DP  RH WIND       PRES   REMARKS
GRAND ISLAND   CLOUDY    77  72  84 E7        29.93S
6HR MIN TEMP:  77; 6HR MAX TEMP:  92;

AURORA         CLOUDY    75  73  91 E6        29.92S
HASTINGS       CLOUDY    80  68  66 E9        29.93S
6HR MIN TEMP:  78; 6HR MAX TEMP:  91;

HEBRON         CLOUDY    76  67  73 E3        29.90F
HOLDREGE       CLOUDY    76  67  74 SE9       29.92F
KEARNEY *      CLOUDY    77  70  78 E7        29.93S
YORK           PTCLDY    77  68  73 SE7       29.91F
$$

NEZ011>018-030>034-042>045-230700-
NORTHEAST NEBRASKA

CITY           SKY/WX    TMP DP  RH WIND       PRES   REMARKS
NORFOLK        PTCLDY    80  78  94 E9        29.90F
6HR MIN TEMP:  80; 6HR MAX TEMP:  91;

ALBION         CLOUDY    77  73  87 SE3       29.92S
BLAIR          PTCLDY    82  79  90 SE7       29.92S HX  92
FREMONT        PTCLDY    81  78  92 CALM      29.91F
TEKAMAH        MOCLDY    81  78  91 E3        29.90F
6HR MIN TEMP:  81; 6HR MAX TEMP:  92;

WAYNE          CLOUDY    82  80  95 SE10      29.91F HX  93
$$

NEZ050>053-065>068-078-088>093-230700-
SOUTHEAST NEBRASKA

CITY           SKY/WX    TMP DP  RH WIND       PRES   REMARKS
LINCOLN        CLOUDY    79  71  76 SE7       29.90F
6HR MIN TEMP:  79; 6HR MAX TEMP:  91;

OMAHA EPPLEY   MOCLDY    85  78  80 S10       29.90F HX  96
6HR MIN TEMP:  84; 6HR MAX TEMP:  94;

BEATRICE       CLOUDY    81  73  76 SE8       29.91F
FALLS CITY     PTCLDY    83  75  77 S9        29.93S HX  90
6HR MIN TEMP:  82; 6HR MAX TEMP:  92; 6HR PCP:  0.04;

NEBRASKA CITY  CLOUDY    81  75  82 S9        29.93F
PLATTSMOUTH    CLOUDY    82  77  85 SE8       29.92F HX  90
$$

NEZ044-045-051>053-067-230700-
OMAHA AREA

CITY           SKY/WX    TMP DP  RH WIND       PRES   REMARKS
OMAHA EPPLEY   MOCLDY    85  78  80 S10       29.90F HX  96
6HR MIN TEMP:  84; 6HR MAX TEMP:  94;

BLAIR          PTCLDY    82  79  90 SE7       29.92S HX  92
FREMONT        PTCLDY    81  78  92 CALM      29.91F
MILLARD        PTCLDY    83  77  84 SE6       29.90F HX  91
OFFUTT AFB     MOCLDY    82  80  95 E7        29.90F HX  93
PLATTSMOUTH    CLOUDY    82  77  85 SE8       29.92F HX  90
WAHOO          FAIR      77  74  91 SE3       29.90F
$$




USA.gov is the U.S. government's official web portal to all federal, state and local government web resources and services.